Погода в Ваегах

Россия / Чукотский автономный округ     64°09′55″N   171°02′26″E
темп.,
°C
ветер,
м/с
пор.,
м/с
влажн.,
%
обл.,
%
осадки,
мм/ч
давл.,
гПа
погр.,
м
7 мая, пт
пт700:00−4св2297100 0.1 101840
03:00−4всв2597100 0.9 1017171
06:00−3св2497100 1.9 1016195
09:00−2св2397100 1.3 1015263
12:00−1св3399100 2.6 1015325
15:00−1св34100100 1.1 1014369
18:00−1ссв3497100 1.8 1014339
21:00−3с239891 0.5 101468
8 мая, сб
сб800:00−5ссз2297100 0.7 101541
03:00−6ссз2297100 0.3 101661
06:00−8ссз229479 0.4 101690
09:00−7ссз228780 0.0 1017188
12:00−5ссз228659 0.0 1018285
15:00−4ссз228651 0.0 1017331
18:00−4ссз229119 0.0 1018133
21:00−11сз219858 0.0 101910
9 мая, вс
вс900:00−15ссз1110099 0.0 10199
03:00−17ссз11100100 0.0 10209
06:00−16ссз00100100 0.1 102016
09:00−9сз119290 0.0 1020123
12:00−6ссз118638 0.0 1021239
15:00−4ссз218574 0.0 1020291
18:00−5ссз229175 0.0 1020108
21:00−10ссз1197100 0.0 102110
10 мая, пн
пн1000:00−12ссз1198100 0.0 10219
03:00−15ссз11100100 0.0 10219
06:00−14ссз11100100 0.0 102213
09:00−8ссз2294100 0.0 1022144
12:00−6ссз228979 0.0 1021260
15:00−4ссз238765 0.0 1021298
18:00−5ссз239154 0.0 1021148
21:00−12сз119840 0.0 102110
11 мая, вт
вт1100:00−15ссз1110087 0.0 10219
03:00−18ссз11100100 0.0 10219
06:00−16ссз11100100 0.1 102125
09:00−10ссз229292 0.0 1020148
12:00−6ссз2287100 0.0 1020239
15:00−4с3386100 0.0 1019298
18:00−3с348899 0.0 1019259
21:00−7сз229797 0.0 101911